CDT,Max TemperatureF,Mean TemperatureF,Min TemperatureF,Max Dew PointF,MeanDew PointF,Min DewpointF,Max Humidity, Mean Humidity, Min Humidity, Max Sea Level PressureIn, Mean Sea Level PressureIn, Min Sea Level PressureIn, Max VisibilityMiles, Mean VisibilityMiles, Min VisibilityMiles, Max Wind SpeedMPH, Mean Wind SpeedMPH, Max Gust SpeedMPH,PrecipitationIn, CloudCover, Events, WindDirDegrees
2013-9-1,89,76,63,74,67,61,100,79,47,29.89,29.82,29.77,10,7,0,14,4,18,0.00,3,Fog,280
2013-9-2,79,68,56,63,58,52,100,77,41,30.02,29.96,29.89,10,10,10,10,5,18,0.00,1,,326
2013-9-3,77,62,47,60,54,47,100,83,44,30.12,30.06,30.02,10,10,7,9,3,,0.00,1,,301
2013-9-4,84,66,47,65,56,47,100,74,37,30.17,30.13,30.07,10,10,2,6,1,,0.00,0,,278
2013-9-5,89,73,58,69,63,58,99,71,44,30.21,30.17,30.14,10,10,10,8,2,,0.00,1,,126
2013-9-6,86,72,59,65,61,54,86,69,42,30.19,30.12,30.02,10,10,10,10,5,,0.00,0,,144
2013-9-7,90,75,60,70,66,60,99,74,49,30.03,29.96,29.89,10,10,7,14,5,16,0.00,1,Rain,176
2013-9-8,84,76,69,73,71,67,100,82,60,29.98,29.93,29.89,10,10,3,15,6,28,0.64,4,Rain-Thunderstorm,119
2013-9-9,95,82,69,75,71,66,100,76,44,29.93,29.89,29.85,10,8,2,10,6,,0.00,0,,180
2013-9-10,93,80,66,71,66,63,88,66,38,30.05,30.00,29.93,10,10,10,17,8,24,0.00,0,,200
2013-9-11,90,78,68,71,68,65,100,76,49,30.09,30.06,30.03,10,10,10,13,6,21,0.01,2,Rain,240
2013-9-12,80,66,54,71,59,47,100,71,34,30.12,30.07,30.04,10,10,10,18,7,24,0.01,1,,303
2013-9-13,70,58,45,51,46,38,97,70,31,30.22,30.16,30.11,10,10,10,14,6,18,0.00,0,,12
2013-9-14,71,56,40,51,46,41,100,70,40,30.20,30.12,30.02,10,10,10,8,3,,0.00,0,,151
2013-9-15,65,59,53,62,55,47,100,87,76,30.19,30.03,29.98,10,9,4,14,6,18,0.31,6,Rain,158
2013-9-16,70,60,50,55,52,48,100,80,53,30.35,30.28,30.19,10,10,7,16,9,21,0.00,4,,43
2013-9-17,69,59,49,61,55,48,99,83,70,30.31,30.20,30.09,10,10,7,10,6,,0.00,3,,118
2013-9-18,83,72,61,72,65,57,91,80,65,30.09,29.98,29.90,10,10,10,15,7,21,0.05,3,Rain-Thunderstorm,159
2013-9-19,90,78,66,71,69,64,100,77,48,29.94,29.89,29.78,10,10,2,17,9,24,0.58,3,Rain-Thunderstorm,183
2013-9-20,70,62,54,67,58,50,100,83,52,29.92,29.89,29.84,10,10,3,15,8,21,0.05,3,Rain,269
2013-9-21,68,57,46,52,49,47,100,82,49,29.97,29.93,29.91,10,10,10,13,5,21,0.00,1,,302
2013-9-22,71,58,45,52,49,45,100,75,45,30.06,30.00,29.96,10,10,10,7,2,,0.00,0,,99
2013-9-23,73,60,46,54,49,45,95,72,45,30.07,30.01,29.96,10,10,10,10,6,,0.00,0,,109
2013-9-24,77,63,50,58,53,48,94,72,50,29.99,29.93,29.87,10,10,10,12,5,18,0.00,2,,93
2013-9-25,78,65,52,59,54,50,94,71,48,29.94,29.91,29.89,10,10,7,12,6,18,0.00,1,,65
2013-9-26,81,68,54,62,57,52,94,72,49,30.04,30.00,29.94,10,10,7,9,6,16,0.00,0,,107
2013-9-27,82,68,55,63,55,50,84,65,39,30.12,30.06,30.00,10,10,10,10,5,21,0.00,0,,129
2013-9-28,80,68,54,68,60,54,100,82,56,30.03,29.97,29.92,10,10,7,23,8,30,0.02,5,Rain,175
2013-9-29,72,58,45,55,47,40,100,73,32,30.10,30.04,29.99,10,7,0,9,3,,0.00,3,Fog,31
2013-9-30,76,58,42,57,50,43,100,74,41,30.00,29.93,29.87,10,10,10,13,4,20,0.00,0,,153